[[{"header":{"parameterUnit":"m.s-1","parameterCategory":1,"la1":30.2991,"la2":30.254,"lo1":-89.0895,"lo2":-89.0444,"dy":0.0017,"dx":0.0017,"nx":28,"ny":28,"refTime":"2025-01-18T09:00:00:Z","depth":0,"parameterNumber":2,"parameterNumberName":"U-component_of_WINDS"},"data":[0,0,0,0,0,0,0,0,0,0,0,0,0,0,0,0,0,0,0,0,0,0,0,0,0,0,0,0,0,0,0,0,0,0,0,0,0,0,0,0,0,0,0,0,0,0,0,0,0,0,0,0,0,0,0,0,0,0,-0.902,-0.902,0,-0.907,-0.9071,-0.9071,-0.9015,-0.9013,-0.9011,-0.9009,-0.9063,-0.9067,-0.907,0,0,0,0,0,0,0,0,0,0,0,0,0,-0.8878,-0.8881,-0.902,-0.902,-0.9021,-0.907,-0.9071,-0.9071,-0.9016,-0.9013,-0.9011,-0.9008,-0.9062,-0.9066,-0.907,0,0,0,0,0,0,0,0,0,0,0,0,0,-0.8935,-0.8882,-0.902,-0.8999,-0.8998,-0.907,-0.9071,-0.9071,-0.9016,-0.9013,-0.901,-0.9007,-0.9061,-0.9066,-0.9071,-0.9167,0,0,-0.9087,-0.9089,0,0,0,0,0,0,0,0,-0.8932,-0.894,-0.9002,-0.9001,-0.8999,-0.9033,-0.904,-0.9103,-0.9017,-0.9009,-0.9009,-0.9005,-0.9056,-0.9061,-0.9078,-0.9169,-0.9171,-0.9087,-0.909,-0.9093,-0.9094,0,0,0,0,0,0,0,-0.8928,-0.8938,-0.904,-0.9003,-0.9001,-0.8988,-0.8993,-0.9052,-0.905,-0.901,-0.9006,-0.9012,-0.9055,-0.9073,-0.9079,-0.9172,-0.9087,-0.9092,-0.9095,-0.9097,-0.9344,-0.9347,0,0,0,0,0,0,-0.8926,-0.8935,-0.9038,-0.9041,-0.8957,-0.8993,-0.8998,-0.9026,-0.9049,-0.905,-0.9015,-0.901,-0.9066,-0.9073,-0.9081,-0.9194,-0.9092,-0.9097,-0.91,-0.934,-0.9345,-0.9348,0,0,0,0,0,0,-0.8923,-0.8936,-0.9036,-0.8987,-0.8999,-0.8999,-0.903,-0.9028,-0.9046,-0.9053,-0.9053,-0.9034,-0.9064,-0.9073,-0.9145,-0.9195,-0.91,-0.9104,-0.9336,-0.9342,-0.9347,-0.9423,0,0,0,0,0,0,-0.8919,-0.8935,-0.8971,-0.8988,-0.9002,-0.91,-0.9033,-0.9032,-0.9055,-0.9048,-0.9071,-0.9072,-0.9062,-0.9138,-0.915,-0.9201,-0.9108,-0.9332,-0.9339,-0.9345,-0.9416,-0.943,-0.9442,0,0,0,0,0,-0.8914,-0.8991,-0.8973,-0.8986,-0.9047,-0.9103,-0.9111,-0.9097,-0.9059,-0.9096,-0.91,-0.9071,-0.9187,-0.9146,-0.9159,-0.9212,-0.9329,-0.9337,-0.9344,-0.941,-0.9427,-0.9442,0,0,0,0,0,0,-0.8982,-0.8993,-0.8973,-0.9058,-0.908,-0.9093,-0.9139,-0.9116,-0.915,-0.9142,-0.9125,-0.913,-0.9207,-0.9216,-0.917,-0.9305,-0.9252,-0.9263,-0.9297,-0.9314,-0.9326,-0.9324,-0.9113,0,0,0,0,0,-0.9006,-0.905,-0.9058,-0.9132,-0.9144,-0.914,-0.9164,-0.9151,-0.9173,-0.9183,-0.9192,-0.9216,-0.9257,-0.9286,-0.9324,-0.9416,-0.942,-0.9459,-0.9472,-0.9482,-0.9493,-0.9542,-0.956,-0.9374,-0.9374,-0.9374,0,0,-0.9058,-0.9069,-0.9099,-0.9146,-0.9161,-0.9208,-0.9148,-0.92,-0.9235,-0.9191,-0.926,-0.9267,-0.9292,-0.9374,-0.9411,-0.9385,-0.9545,-0.9492,-0.9501,-0.9506,-0.9552,-0.957,-0.9585,-0.9379,-0.9378,-0.9378,0,0,-0.9176,-0.9188,-0.9252,-0.9268,-0.9291,-0.9288,-0.9303,-0.932,-0.9323,-0.9391,-0.9359,-0.94,-0.9472,-0.9491,-0.951,-0.9633,-0.9608,-0.9646,-0.9716,-0.9764,-0.9779,-0.9792,-0.9837,-0.9853,-0.9656,-0.9656,-0.9656,0,-0.9237,-0.9306,-0.9287,-0.9341,-0.9363,-0.9324,-0.9388,-0.9405,-0.944,-0.9457,-0.9425,-0.9515,-0.9529,-0.9615,-0.9645,-0.9661,-0.9679,-0.9645,-0.9778,-0.9791,-0.9803,-0.9846,-0.9862,-0.9661,-0.966,-0.966,-0.9659,0,-0.9381,-0.9429,-0.9477,-0.9511,-0.9538,-0.9597,-0.9588,-0.9617,-0.9601,-0.9601,-0.9671,-0.9686,-0.9727,-0.9746,-0.9732,-0.983,-0.9813,-0.978,-0.9727,-0.9825,-0.9865,-0.9882,-0.9668,-0.9666,-0.9665,-0.9663,0,0,-0.9546,-0.9567,-0.9585,-0.96,-0.9622,-0.9659,-0.9716,-0.9755,-0.9781,-0.9806,-0.9854,-0.9915,-0.9884,-0.9906,-0.9893,-0.9935,-1.0033,-0.9897,-0.9898,-0.9924,-1.0144,-1.017,-1.0189,-1.0015,-1.0018,-1.002,-1.0142,0,-0.9666,-0.9764,-0.9748,-0.9843,-0.9887,-0.9849,-0.9898,-0.9918,-0.9918,-0.9956,-0.9957,-1.0001,-0.9957,-0.997,-1.0009,-1.0013,-1.0077,-1.0003,-1.0061,-1.0063,-1.0058,-1.021,-1.0238,-1.0352,-1.0157,-1.016,-1.0162,0,-0.9819,-0.9849,-0.9948,-0.9962,-0.998,-1.0025,-1.0059,-1.0096,-1.0116,-1.0114,-1.0137,-1.0116,-1.0173,-1.0116,-1.0195,-1.0145,-1.0167,-1.0172,-1.0176,-1.0183,-1.0121,-1.0223,-1.0388,-1.0406,-1.0186,-1.0184,-1.0182,0,-0.9931,-0.9996,-1.0064,-1.0077,-1.0095,-1.0128,-1.0137,-1.0154,-1.0178,-1.0208,-1.0223,-1.026,-1.028,-1.0309,-1.0298,-1.0257,-1.0379,-1.0321,-1.038,-1.0381,-1.041,-1.0409,-1.0583,-1.0421,-1.042,-1.042,-1.042,0,-1.0068,-1.0131,-1.0114,-1.0157,-1.0226,-1.0206,-1.0275,-1.0279,-1.0295,-1.0337,-1.0306,-1.0347,-1.0329,-1.0369,-1.036,-1.0427,-1.0436,-1.0437,-1.0434,-1.0441,-1.0441,-1.0457,-1.045,-1.0424,-1.0423,-1.0423,-1.0422,0,-1.0207,-1.0198,-1.0269,-1.028,-1.0284,-1.0334,-1.0343,-1.0383,-1.038,-1.0434,-1.0446,-1.0442,-1.0487,-1.0478,-1.0528,-1.0522,-1.0606,-1.0593,-1.06,-1.0597,-1.0657,-1.0652,-1.085,-1.0875,-1.0694,-1.0696,-1.0698,0,-1.0296,-1.0343,-1.0358,-1.0384,-1.0395,-1.0437,-1.0461,-1.0442,-1.0469,-1.0495,-1.0532,-1.0573,-1.0606,-1.0679,-1.0681,-1.0719,-1.0708,-1.0774,-1.0713,-1.0718,-1.0711,-1.0709,-1.0714,-1.0787,-1.0789,-1.0791,-1.0792,0,-1.0455,-1.0448,-1.0484,-1.0518,-1.0547,-1.0573,-1.0596,-1.0619,-1.0602,-1.0634,-1.0679,-1.0704,-1.0753,-1.0796,-1.083,-1.084,-1.0814,-1.0811,-1.0827,-1.0835,-1.0838,-1.0839,-1.0635,-1.0807,-1.0806,-1.0805,-1.0804,-1.0803,-1.0573,-1.0613,-1.063,-1.067,-1.0685,-1.0707,-1.0745,-1.0746,-1.0782,-1.0821,-1.0808,-1.0859,-1.0877,-1.0921,-1.0934,-1.0975,-1.095,-1.0973,-1.0979,-1.0985,-1.0993,-1.0829,-1.0981,-1.098,-1.098,-1.0979,-1.0979,0,-1.0733,-1.0741,-1.0778,-1.081,-1.0842,-1.0813,-1.0836,-1.0865,-1.0911,-1.0929,-1.0961,-1.1013,-1.1053,-1.1057,-1.1095,-1.1126,-1.1115,-1.1137,-1.1136,-1.1139,-1.1013,-1.0996,-1.1145,-1.1145,-1.1145,-1.1145,-1.1145,-1.1145,-1.082,-1.0886,-1.0881,-1.0954,-1.0962,-1.1011,-1.1027,-1.1047,-1.1062,-1.1121,-1.1154,-1.1155,-1.1168,-1.1206,-1.1242,-1.1242,-1.1258,-1.1285,-1.1281,-1.1164,-1.1147,-1.1132,-1.1116,-1.1288,-1.1289,-1.1404,-1.1405,-1.1406]},{"header":{"parameterUnit":"m.s-1","parameterCategory":1,"la1":30.2991,"la2":30.254,"lo1":-89.0895,"lo2":-89.0444,"dy":0.0017,"dx":0.0017,"nx":28,"ny":28,"refTime":"2025-01-18T09:00:00:Z","depth":0,"parameterNumber":3,"parameterNumberName":"V-component_of_WINDS"},"data":[0,0,0,0,0,0,0,0,0,0,0,0,0,0,0,0,0,0,0,0,0,0,0,0,0,0,0,0,0,0,0,0,0,0,0,0,0,0,0,0,0,0,0,0,0,0,0,0,0,0,0,0,0,0,0,0,0,0,-7.1972,-7.1973,0,-7.2089,-7.2091,-7.2092,-7.1977,-7.1972,-7.1968,-7.1963,-7.208,-7.2087,-7.2094,0,0,0,0,0,0,0,0,0,0,0,0,0,-7.1644,-7.165,-7.1972,-7.1974,-7.1975,-7.2089,-7.2091,-7.2092,-7.1978,-7.1972,-7.1967,-7.1961,-7.2077,-7.2086,-7.2095,0,0,0,0,0,0,0,0,0,0,0,0,0,-7.1776,-7.1653,-7.1972,-7.1932,-7.1929,-7.2089,-7.2091,-7.2093,-7.1979,-7.1972,-7.1965,-7.1959,-7.2075,-7.2085,-7.2096,-7.23,0,0,-7.213,-7.2134,0,0,0,0,0,0,0,0,-7.1769,-7.1788,-7.1936,-7.1935,-7.1932,-7.2012,-7.2018,-7.2162,-7.198,-7.196,-7.1963,-7.1955,-7.2062,-7.2074,-7.2111,-7.2306,-7.2311,-7.2131,-7.2137,-7.2142,-7.2145,0,0,0,0,0,0,0,-7.176,-7.1783,-7.2018,-7.1938,-7.1936,-7.1906,-7.1917,-7.2044,-7.2048,-7.1961,-7.1953,-7.1969,-7.206,-7.21,-7.2113,-7.2312,-7.213,-7.214,-7.2147,-7.2151,-7.2679,-7.2686,0,0,0,0,0,0,-7.1756,-7.1776,-7.2014,-7.2022,-7.1832,-7.1918,-7.193,-7.1993,-7.2046,-7.2048,-7.1974,-7.1963,-7.2085,-7.21,-7.2116,-7.2358,-7.2142,-7.2152,-7.2159,-7.2671,-7.268,-7.2688,0,0,0,0,0,0,-7.1749,-7.1778,-7.201,-7.1897,-7.1924,-7.193,-7.2002,-7.1999,-7.2039,-7.2056,-7.2056,-7.2016,-7.208,-7.2101,-7.2255,-7.236,-7.2157,-7.2167,-7.2663,-7.2674,-7.2684,-7.2844,0,0,0,0,0,0,-7.174,-7.1776,-7.1855,-7.1899,-7.1931,-7.2149,-7.2008,-7.2006,-7.2059,-7.2045,-7.2095,-7.2096,-7.2076,-7.224,-7.2266,-7.2372,-7.2176,-7.2653,-7.2668,-7.2681,-7.2829,-7.2859,-7.2885,0,0,0,0,0,-7.1729,-7.1895,-7.186,-7.1889,-7.203,-7.2155,-7.2173,-7.2148,-7.2068,-7.2146,-7.2157,-7.2095,-7.2345,-7.2256,-7.2285,-7.2396,-7.2646,-7.2664,-7.268,-7.2817,-7.2853,-7.2884,0,0,0,0,0,0,-7.1862,-7.19,-7.1862,-7.2048,-7.2099,-7.2136,-7.2234,-7.2187,-7.2262,-7.2246,-7.221,-7.2222,-7.2386,-7.2406,-7.2307,-7.2595,-7.2482,-7.2506,-7.2577,-7.2611,-7.2638,-7.263,-7.2185,0,0,0,0,0,-7.1914,-7.2014,-7.2041,-7.2202,-7.223,-7.2228,-7.2282,-7.2258,-7.231,-7.233,-7.2352,-7.2404,-7.2493,-7.2553,-7.2637,-7.2831,-7.284,-7.2922,-7.2949,-7.2972,-7.2993,-7.3096,-7.3132,-7.2743,-7.2743,-7.2743,0,0,-7.202,-7.2053,-7.2119,-7.223,-7.2267,-7.237,-7.2247,-7.2362,-7.2437,-7.2347,-7.2495,-7.2513,-7.2567,-7.2743,-7.2821,-7.2764,-7.3102,-7.2993,-7.3011,-7.302,-7.3117,-7.3153,-7.3186,-7.2755,-7.2752,-7.2751,0,0,-7.2267,-7.2303,-7.2441,-7.2481,-7.2539,-7.2536,-7.2569,-7.2613,-7.2622,-7.2769,-7.2703,-7.2792,-7.2948,-7.2989,-7.303,-7.3292,-7.3237,-7.332,-7.3465,-7.3566,-7.3596,-7.3623,-7.3716,-7.375,-7.334,-7.3341,-7.3341,0,-7.2392,-7.2547,-7.2517,-7.2637,-7.2687,-7.2611,-7.2749,-7.2789,-7.2871,-7.2907,-7.2843,-7.3036,-7.3067,-7.3251,-7.3314,-7.3351,-7.3386,-7.3314,-7.3594,-7.3621,-7.3646,-7.3734,-7.3769,-7.335,-7.3349,-7.3348,-7.3347,0,-7.2697,-7.2805,-7.2909,-7.2991,-7.3053,-7.3181,-7.317,-7.3235,-7.3206,-7.3209,-7.336,-7.3395,-7.3483,-7.3525,-7.3497,-7.3704,-7.3668,-7.36,-7.3485,-7.3693,-7.3775,-7.3809,-7.3364,-7.3361,-7.3358,-7.3356,0,0,-7.3032,-7.3096,-7.3135,-7.3171,-7.3229,-7.3311,-7.3435,-7.3523,-7.3579,-7.3638,-7.374,-7.3873,-7.3811,-7.3858,-7.3834,-7.3922,-7.4126,-7.3843,-7.3844,-7.3894,-7.4355,-7.4406,-7.4446,-7.409,-7.4096,-7.4101,-7.4351,0,-7.3281,-7.3498,-7.3474,-7.368,-7.3779,-7.3707,-7.3815,-7.3861,-7.3868,-7.3951,-7.3956,-7.4051,-7.3962,-7.399,-7.4074,-7.4084,-7.4218,-7.4065,-7.4183,-7.4188,-7.4172,-7.4489,-7.4543,-7.4777,-7.4383,-7.4388,-7.4392,0,-7.36,-7.3671,-7.3888,-7.393,-7.397,-7.4068,-7.4146,-7.4226,-7.4277,-7.4275,-7.4327,-7.4287,-7.4409,-7.4293,-7.446,-7.4356,-7.4403,-7.4415,-7.4423,-7.4433,-7.4303,-7.4507,-7.4851,-7.4886,-7.4442,-7.4438,-7.4435,0,-7.3823,-7.3972,-7.4121,-7.4154,-7.4207,-7.4277,-7.4302,-7.4345,-7.4399,-7.4467,-7.4501,-7.4582,-7.4626,-7.4688,-7.467,-7.4587,-7.4842,-7.4723,-7.4842,-7.4843,-7.49,-7.4896,-7.5256,-7.493,-7.493,-7.4929,-7.4928,0,-7.4103,-7.4238,-7.4221,-7.4313,-7.4461,-7.4432,-7.4579,-7.4595,-7.4634,-7.4726,-7.4668,-7.4755,-7.4726,-7.4811,-7.4798,-7.4938,-7.4958,-7.4959,-7.4954,-7.4965,-7.4965,-7.4995,-7.4978,-7.4938,-7.4936,-7.4934,-7.4933,0,-7.4377,-7.4371,-7.4529,-7.4566,-7.4578,-7.4686,-7.4716,-7.4802,-7.4803,-7.492,-7.4945,-7.4947,-7.5044,-7.5032,-7.514,-7.513,-7.5305,-7.528,-7.5289,-7.5283,-7.5403,-7.5392,-7.5794,-7.5845,-7.5487,-7.549,-7.5493,0,-7.4556,-7.4658,-7.4706,-7.4765,-7.4795,-7.4889,-7.4944,-7.4918,-7.4977,-7.5042,-7.5119,-7.5211,-7.5283,-7.5441,-7.5451,-7.5532,-7.5509,-7.5644,-7.5521,-7.5528,-7.551,-7.5505,-7.5514,-7.5669,-7.5673,-7.5676,-7.5679,0,-7.4875,-7.4867,-7.4949,-7.5031,-7.5098,-7.516,-7.5217,-7.5267,-7.5246,-7.5316,-7.5415,-7.5471,-7.5581,-7.5673,-7.575,-7.5773,-7.5723,-7.5718,-7.5749,-7.5762,-7.5762,-7.5763,-7.5355,-7.5709,-7.5706,-7.5703,-7.5702,-7.5701,-7.5107,-7.5194,-7.5241,-7.5334,-7.5374,-7.5428,-7.551,-7.5521,-7.5604,-7.5693,-7.5672,-7.5783,-7.5829,-7.5927,-7.5959,-7.6044,-7.5995,-7.6041,-7.6053,-7.6064,-7.6079,-7.5749,-7.6058,-7.6057,-7.6056,-7.6056,-7.6055,0,-7.5422,-7.5449,-7.5535,-7.5616,-7.5689,-7.5636,-7.5695,-7.5759,-7.5858,-7.5906,-7.5978,-7.6091,-7.6179,-7.6196,-7.628,-7.6345,-7.6324,-7.6368,-7.6362,-7.6369,-7.6118,-7.6082,-7.6383,-7.6383,-7.6383,-7.6383,-7.6383,-7.6383,-7.5594,-7.5739,-7.5737,-7.59,-7.5925,-7.6035,-7.6073,-7.6122,-7.616,-7.6289,-7.6363,-7.6373,-7.6407,-7.6493,-7.6571,-7.6573,-7.6606,-7.6659,-7.6653,-7.6419,-7.6386,-7.6355,-7.6321,-7.6667,-7.6667,-7.6895,-7.6898,-7.6899]}]]